Location: doobydoo
(53.3403°N, 2.6908°W)
Time: 07:12:40
(UTC+00:00)

ISS - Pass Details

Date: 30 November 2021
Orbit: 413 x 422 km, 51.6° (Epoch: 19 January)

Event Time Altitude Azimuth Distance (km) Brightness Sun altitude
Rises 16:46:53 0° 256° (WSW) 2,381 2.0 -7.1°
Reaches altitude 10° 16:49:00 10° 253° (WSW) 1,515 0.7 -7.4°
Maximum altitude 16:52:22 62° 173° (S) 481 -3.4 -7.9°
Drops below altitude 10° 16:55:43 10° 92° (E) 1,512 -1.5 -8.3°
Enters shadow 16:55:55 - 91° (E) 1,588 -1.4 -8.4°
